This is the latest recevied weather packets stored in our database for station/object DB0MAK-13. If no packets are shown the sender has not sent any weather packets the latest 10 day(s).
| Time | Temp. | Humidity | Pressure | Rain* | Wind** | Luminosity | Snow |
|---|---|---|---|---|---|---|---|
| 1777552208 | 11.67° C | 32% | 1028.2 hPa | 0 mm | - | - | - |
| 1777551844 | 11.67° C | 30% | 1028.3 hPa | 0 mm | - | - | - |
| 1777551786 | 11.67° C | 30% | 1028.4 hPa | 0 mm | - | - | - |
| 1777551366 | 12.22° C | 31% | 1028.4 hPa | 0 mm | - | - | - |
| 1777551244 | 12.22° C | 32% | 1028.4 hPa | 0 mm | - | - | - |
| 1777550948 | 11.11° C | 33% | 1028.4 hPa | 0 mm | - | - | - |
| 1777550644 | 11.67° C | 31% | 1028.3 hPa | 0 mm | - | - | - |
| 1777550044 | 11.67° C | 31% | 1028.5 hPa | 0 mm | - | - | - |
| 1777549686 | 11.11° C | 33% | 1028.5 hPa | 0 mm | - | - | - |
| 1777549444 | 11.11° C | 34% | 1028.5 hPa | 0 mm | - | - | - |
| 1777549268 | 11.11° C | 32% | 1028.5 hPa | 0 mm | - | - | - |
| 1777548844 | 11.11° C | 33% | 1028.7 hPa | 0 mm | - | - | - |
| 1777548428 | 11.11° C | 33% | 1028.7 hPa | 0 mm | - | - | - |
| 1777548244 | 11.11° C | 34% | 1028.5 hPa | 0 mm | - | - | - |
| 1777548008 | 10.56° C | 35% | 1027.8 hPa | 0 mm | - | - | - |
| 1777547644 | 10.56° C | 32% | 1027.9 hPa | 0 mm | - | - | - |
| 1777547166 | 10.56° C | 34% | 1027.9 hPa | 0 mm | - | - | - |
| 1777547044 | 10.56° C | 35% | 1027.8 hPa | 0 mm | - | - | - |
| 1777546746 | 10.56° C | 33% | 1027.9 hPa | 0 mm | - | - | - |
| 1777546444 | 10.56° C | 31% | 1028 hPa | 0 mm | - | - | - |
| 1777545906 | 10° C | 35% | 1027.9 hPa | 0 mm | - | - | - |
| 1777545844 | 10° C | 34% | 1027.9 hPa | 0 mm | - | - | - |
| 1777545486 | 10° C | 35% | 1028 hPa | 0 mm | - | - | - |
| 1777545244 | 10° C | 35% | 1027.9 hPa | 0 mm | - | - | - |
| 1777545066 | 10° C | 33% | 1028 hPa | 0 mm | - | - | - |
* Rain latest hour (hover to see other rain measurements)
** Current wind speed in m/s (hover to see current wind gust speed)